Tracking 21605 objects as of 26-Oct-2020
HD Live streaming from Space Station
objects crossing your sky now

BEIDOU 3M11

Track BEIDOU 3M11 now!
BEIDOU 3M11 is classified as:


NORAD ID: 43602
Int'l Code: 2018-067A
Perigee: 21,515.8 km
Apogee: 21,554.5 km
Inclination: 54.6 °
Period: 773.2 minutes
Semi major axis: 27906 km
RCS: Unknown
Launch date: August 24, 2018
Source: People's Republic of China (PRC)
Launch site: Xichang Space Center, China (XSC)
aabbcc
Your satellite tracking list
Your tracking list is empty




NASA's NSSDC Master Catalog

Two Line Element Set (TLE):
1 43602U 18067A   20300.47207987 -.00000051  00000-0  00000+0 0  9992
2 43602  54.5790 251.1843 0006945 345.9330 221.3533  1.86231515 14761
Source of the keplerian elements: AFSPC